[[{"header":{"parameterUnit":"m.s-1","parameterCategory":1,"la1":30.2991,"la2":30.254,"lo1":-89.0895,"lo2":-89.0444,"dy":0.0017,"dx":0.0017,"nx":28,"ny":28,"refTime":"2023-11-22T03:00:00:Z","depth":0,"parameterNumber":2,"parameterNumberName":"U-component_of_WINDS"},"data":[0,0,0,0,0,0,0,0,0,0,0,0,0,0,0,0,0,0,0,0,0,0,0,0,0,0,0,0,0,0,0,0,0,0,0,0,0,0,0,0,0,0,0,0,0,0,0,0,0,0,0,0,0,0,0,0,0,0,-3.2709,-3.2709,0,-3.2741,-3.2741,-3.2742,-3.2649,-3.2646,-3.2643,-3.264,-3.2673,-3.2677,-3.268,0,0,0,0,0,0,0,0,0,0,0,0,0,-3.2567,-3.257,-3.2709,-3.271,-3.271,-3.2741,-3.2741,-3.2742,-3.2649,-3.2646,-3.2642,-3.2639,-3.2672,-3.2676,-3.2681,0,0,0,0,0,0,0,0,0,0,0,0,0,-3.2617,-3.2571,-3.2709,-3.2667,-3.2664,-3.2741,-3.2741,-3.2742,-3.265,-3.2646,-3.2642,-3.2638,-3.2671,-3.2676,-3.2681,-3.28,0,0,-3.2697,-3.27,0,0,0,0,0,0,0,0,-3.2614,-3.2622,-3.2673,-3.267,-3.2667,-3.2687,-3.2703,-3.2761,-3.2651,-3.2655,-3.264,-3.2635,-3.2681,-3.2685,-3.2701,-3.2801,-3.2803,-3.2698,-3.2701,-3.2703,-3.2705,0,0,0,0,0,0,0,-3.2611,-3.2621,-3.2722,-3.2674,-3.267,-3.2647,-3.2649,-3.2714,-3.2692,-3.2655,-3.2648,-3.2653,-3.2679,-3.2696,-3.2701,-3.2803,-3.2698,-3.2702,-3.2706,-3.2708,-3.3002,-3.3006,0,0,0,0,0,0,-3.2613,-3.2618,-3.2721,-3.2723,-3.263,-3.2653,-3.2656,-3.2685,-3.2691,-3.2688,-3.2657,-3.2649,-3.2689,-3.2695,-3.2702,-3.284,-3.2703,-3.2708,-3.2711,-3.2997,-3.3003,-3.3008,0,0,0,0,0,0,-3.261,-3.2623,-3.2719,-3.2669,-3.2679,-3.266,-3.2693,-3.2687,-3.2705,-3.2693,-3.2688,-3.2679,-3.2686,-3.2694,-3.2776,-3.284,-3.2711,-3.2715,-3.2992,-3.2999,-3.3005,-3.3119,0,0,0,0,0,0,-3.2607,-3.2623,-3.2668,-3.267,-3.2682,-3.2794,-3.2697,-3.2691,-3.2714,-3.2704,-3.2712,-3.2709,-3.2683,-3.2768,-3.2781,-3.2845,-3.272,-3.2986,-3.2995,-3.3003,-3.311,-3.3129,-3.3146,0,0,0,0,0,-3.2602,-3.2699,-3.2671,-3.2683,-3.2738,-3.2797,-3.2804,-3.2772,-3.272,-3.2765,-3.2757,-3.2709,-3.2831,-3.2778,-3.2791,-3.2858,-3.2981,-3.2992,-3.3002,-3.3102,-3.3126,-3.3146,0,0,0,0,0,0,-3.2704,-3.2698,-3.2667,-3.2768,-3.2784,-3.2782,-3.2837,-3.2799,-3.283,-3.282,-3.2779,-3.2781,-3.287,-3.2872,-3.2812,-3.2972,-3.2897,-3.2911,-3.2968,-3.2991,-3.3009,-3.3006,-3.2724,0,0,0,0,0,-3.2739,-3.2787,-3.2779,-3.2869,-3.2879,-3.2857,-3.2882,-3.2856,-3.2871,-3.2877,-3.2875,-3.2892,-3.2933,-3.2962,-3.3,-3.3109,-3.3109,-3.3162,-3.318,-3.3195,-3.3207,-3.3265,-3.3288,-3.3042,-3.3042,-3.3041,0,0,-3.281,-3.2813,-3.2846,-3.289,-3.2899,-3.295,-3.2863,-3.2921,-3.2959,-3.2886,-3.2963,-3.2962,-3.2978,-3.3074,-3.3116,-3.3078,-3.3275,-3.3208,-3.322,-3.3224,-3.3278,-3.3301,-3.3322,-3.3049,-3.3047,-3.3046,0,0,-3.2966,-3.2973,-3.3048,-3.306,-3.3075,-3.306,-3.3078,-3.3082,-3.3078,-3.3155,-3.3101,-3.3145,-3.3218,-3.3231,-3.3248,-3.3409,-3.3365,-3.3422,-3.3517,-3.3573,-3.3593,-3.361,-3.3667,-3.3688,-3.3434,-3.3435,-3.3435,0,-3.3053,-3.3128,-3.3092,-3.3154,-3.3174,-3.311,-3.3186,-3.3198,-3.3226,-3.3241,-3.3198,-3.3289,-3.3295,-3.3392,-3.3432,-3.3447,-3.3466,-3.3421,-3.3593,-3.361,-3.3625,-3.3679,-3.37,-3.3441,-3.3441,-3.344,-3.3439,0,-3.3234,-3.3287,-3.3345,-3.3373,-3.34,-3.3469,-3.3443,-3.3475,-3.3446,-3.3436,-3.3514,-3.3519,-3.3556,-3.3578,-3.3551,-3.3672,-3.3648,-3.36,-3.3523,-3.3656,-3.3706,-3.3726,-3.3451,-3.3449,-3.3447,-3.3445,0,0,-3.3455,-3.3462,-3.3484,-3.3496,-3.3508,-3.3548,-3.3613,-3.365,-3.3678,-3.3699,-3.3752,-3.3815,-3.3771,-3.3789,-3.3763,-3.3813,-3.3939,-3.3758,-3.3758,-3.3792,-3.4072,-3.4108,-3.4133,-3.3911,-3.3915,-3.3918,-3.4071,0,-3.3609,-3.3721,-3.369,-3.3802,-3.385,-3.379,-3.3847,-3.386,-3.3852,-3.3891,-3.3882,-3.3927,-3.3865,-3.3876,-3.3922,-3.3914,-3.3995,-3.3903,-3.396,-3.3962,-3.3958,-3.4159,-3.4197,-3.4342,-3.409,-3.4094,-3.4096,0,-3.3803,-3.3831,-3.3948,-3.3952,-3.3971,-3.4022,-3.4053,-3.4092,-3.4106,-3.4096,-3.4117,-3.408,-3.4144,-3.4068,-3.4155,-3.4093,-3.4114,-3.4114,-3.4118,-3.4122,-3.4037,-3.4168,-3.4387,-3.4409,-3.4126,-3.4124,-3.4122,0,-3.3953,-3.402,-3.4098,-3.411,-3.4117,-3.4154,-3.4158,-3.4168,-3.4192,-3.4219,-3.4234,-3.4268,-3.4287,-3.4314,-3.4288,-3.4234,-3.4379,-3.43,-3.4372,-3.4373,-3.4405,-3.4404,-3.4631,-3.442,-3.442,-3.4419,-3.4419,0,-3.4127,-3.4201,-3.4166,-3.4214,-3.4295,-3.4258,-3.4339,-3.4336,-3.4345,-3.4392,-3.4342,-3.4386,-3.4349,-3.439,-3.437,-3.4445,-3.4454,-3.4447,-3.4441,-3.4452,-3.4453,-3.4465,-3.4454,-3.4425,-3.4424,-3.4423,-3.4422,0,-3.4308,-3.4288,-3.4369,-3.4368,-3.437,-3.4429,-3.4428,-3.4472,-3.446,-3.452,-3.4531,-3.4513,-3.4558,-3.4535,-3.4582,-3.4568,-3.4665,-3.4646,-3.4661,-3.4655,-3.4729,-3.4722,-3.4972,-3.5002,-3.4773,-3.4775,-3.4777,0,-3.4421,-3.4476,-3.4481,-3.4509,-3.4517,-3.4562,-3.4586,-3.4552,-3.4579,-3.4599,-3.4641,-3.4682,-3.4713,-3.4789,-3.478,-3.4815,-3.4796,-3.4881,-3.4801,-3.481,-3.4797,-3.4794,-3.4799,-3.4897,-3.49,-3.4902,-3.4904,0,-3.4623,-3.461,-3.4647,-3.468,-3.471,-3.4735,-3.4755,-3.478,-3.4747,-3.478,-3.4826,-3.485,-3.4899,-3.494,-3.4971,-3.4975,-3.4934,-3.4929,-3.4947,-3.4959,-3.4965,-3.4962,-3.4704,-3.4923,-3.4921,-3.492,-3.4919,-3.4918,-3.4773,-3.4819,-3.483,-3.4872,-3.4884,-3.4904,-3.4945,-3.4938,-3.4976,-3.5013,-3.4991,-3.5045,-3.5056,-3.5094,-3.5103,-3.5144,-3.511,-3.5138,-3.5144,-3.5151,-3.5161,-3.4959,-3.515,-3.5149,-3.5149,-3.5148,-3.5148,0,-3.4972,-3.4976,-3.5015,-3.5045,-3.5079,-3.5037,-3.5057,-3.5088,-3.5136,-3.515,-3.5182,-3.5235,-3.5275,-3.5268,-3.5304,-3.5339,-3.5321,-3.535,-3.5346,-3.5348,-3.519,-3.517,-3.5363,-3.5363,-3.5363,-3.5363,-3.5363,-3.5363,-3.508,-3.5155,-3.5143,-3.5224,-3.5227,-3.528,-3.5295,-3.5313,-3.5324,-3.5385,-3.5418,-3.5414,-3.5419,-3.5456,-3.549,-3.5487,-3.5503,-3.5538,-3.5528,-3.538,-3.5359,-3.5339,-3.532,-3.5542,-3.5542,-3.5683,-3.5684,-3.5685]},{"header":{"parameterUnit":"m.s-1","parameterCategory":1,"la1":30.2991,"la2":30.254,"lo1":-89.0895,"lo2":-89.0444,"dy":0.0017,"dx":0.0017,"nx":28,"ny":28,"refTime":"2023-11-22T03:00:00:Z","depth":0,"parameterNumber":3,"parameterNumberName":"V-component_of_WINDS"},"data":[0,0,0,0,0,0,0,0,0,0,0,0,0,0,0,0,0,0,0,0,0,0,0,0,0,0,0,0,0,0,0,0,0,0,0,0,0,0,0,0,0,0,0,0,0,0,0,0,0,0,0,0,0,0,0,0,0,0,-2.3596,-2.3596,0,-2.362,-2.362,-2.362,-2.3574,-2.3572,-2.3571,-2.3569,-2.3593,-2.3595,-2.3597,0,0,0,0,0,0,0,0,0,0,0,0,0,-2.3509,-2.3511,-2.3596,-2.3596,-2.3596,-2.362,-2.362,-2.362,-2.3574,-2.3572,-2.357,-2.3568,-2.3592,-2.3595,-2.3597,0,0,0,0,0,0,0,0,0,0,0,0,0,-2.3541,-2.3511,-2.3596,-2.3576,-2.3575,-2.3619,-2.362,-2.362,-2.3574,-2.3572,-2.357,-2.3568,-2.3591,-2.3594,-2.3597,-2.3662,0,0,-2.3607,-2.3608,0,0,0,0,0,0,0,0,-2.3539,-2.3544,-2.3579,-2.3578,-2.3576,-2.3591,-2.3598,-2.3634,-2.3575,-2.3574,-2.3569,-2.3566,-2.3594,-2.3597,-2.3606,-2.3663,-2.3664,-2.3607,-2.3609,-2.361,-2.3611,0,0,0,0,0,0,0,-2.3537,-2.3543,-2.3605,-2.3579,-2.3578,-2.3566,-2.3568,-2.3605,-2.3597,-2.3574,-2.3571,-2.3574,-2.3593,-2.3603,-2.3607,-2.3665,-2.3607,-2.361,-2.3612,-2.3613,-2.3775,-2.3778,0,0,0,0,0,0,-2.3538,-2.3542,-2.3604,-2.3606,-2.3552,-2.3569,-2.3571,-2.3589,-2.3596,-2.3595,-2.3576,-2.3572,-2.3599,-2.3603,-2.3607,-2.3683,-2.361,-2.3613,-2.3615,-2.3773,-2.3776,-2.3779,0,0,0,0,0,0,-2.3536,-2.3544,-2.3603,-2.3573,-2.358,-2.3573,-2.3593,-2.359,-2.3601,-2.3598,-2.3596,-2.3589,-2.3598,-2.3603,-2.3649,-2.3683,-2.3615,-2.3617,-2.377,-2.3774,-2.3777,-2.3836,0,0,0,0,0,0,-2.3534,-2.3543,-2.3568,-2.3574,-2.3581,-2.3645,-2.3595,-2.3592,-2.3606,-2.3601,-2.3609,-2.3608,-2.3596,-2.3644,-2.3652,-2.3686,-2.362,-2.3767,-2.3772,-2.3776,-2.3831,-2.3842,-2.385,0,0,0,0,0,-2.3531,-2.3584,-2.357,-2.3578,-2.3613,-2.3647,-2.3652,-2.3637,-2.3609,-2.3634,-2.3632,-2.3608,-2.3678,-2.365,-2.3658,-2.3694,-2.3765,-2.377,-2.3776,-2.3827,-2.384,-2.385,0,0,0,0,0,0,-2.3583,-2.3584,-2.3569,-2.3625,-2.3637,-2.364,-2.367,-2.3651,-2.367,-2.3665,-2.3646,-2.3648,-2.3697,-2.37,-2.3668,-2.3756,-2.3717,-2.3724,-2.3753,-2.3765,-2.3774,-2.3773,-2.3622,0,0,0,0,0,-2.3601,-2.3629,-2.3629,-2.3679,-2.3686,-2.3677,-2.3692,-2.368,-2.369,-2.3695,-2.3696,-2.3707,-2.3732,-2.3748,-2.3771,-2.3831,-2.3832,-2.386,-2.3869,-2.3877,-2.3884,-2.3916,-2.3928,-2.3797,-2.3797,-2.3797,0,0,-2.3639,-2.3643,-2.3662,-2.369,-2.3697,-2.3727,-2.3681,-2.3715,-2.3736,-2.37,-2.3743,-2.3745,-2.3756,-2.3809,-2.3833,-2.3813,-2.392,-2.3884,-2.3891,-2.3893,-2.3923,-2.3935,-2.3946,-2.3801,-2.38,-2.3799,0,0,-2.3722,-2.3729,-2.3771,-2.3779,-2.3791,-2.3784,-2.3795,-2.38,-2.38,-2.3843,-2.3816,-2.3841,-2.3884,-2.3893,-2.3903,-2.3989,-2.3968,-2.3997,-2.4047,-2.4078,-2.4089,-2.4098,-2.4128,-2.414,-2.4004,-2.4004,-2.4004,0,-2.3768,-2.3812,-2.3795,-2.383,-2.3843,-2.3811,-2.3853,-2.3862,-2.388,-2.3889,-2.3867,-2.3919,-2.3925,-2.3979,-2.4,-2.401,-2.402,-2.3996,-2.4089,-2.4097,-2.4106,-2.4135,-2.4146,-2.4007,-2.4007,-2.4007,-2.4006,0,-2.3866,-2.3897,-2.393,-2.3948,-2.3965,-2.4003,-2.3992,-2.401,-2.3997,-2.3993,-2.4037,-2.4042,-2.4065,-2.4076,-2.4063,-2.4129,-2.4117,-2.4092,-2.4052,-2.4122,-2.4149,-2.416,-2.4012,-2.4011,-2.401,-2.4009,0,0,-2.3984,-2.3993,-2.4005,-2.4013,-2.4023,-2.4046,-2.4083,-2.4105,-2.4121,-2.4134,-2.4164,-2.4201,-2.4178,-2.4189,-2.4177,-2.4204,-2.4272,-2.4176,-2.4176,-2.4193,-2.4344,-2.4363,-2.4376,-2.4257,-2.4259,-2.4261,-2.4343,0,-2.4067,-2.4131,-2.4117,-2.4179,-2.4207,-2.4177,-2.4209,-2.4218,-2.4215,-2.4238,-2.4235,-2.4261,-2.4228,-2.4235,-2.4261,-2.4258,-2.4302,-2.4252,-2.4285,-2.4286,-2.4283,-2.439,-2.441,-2.4488,-2.4354,-2.4355,-2.4357,0,-2.4173,-2.419,-2.4256,-2.4261,-2.4272,-2.4301,-2.432,-2.4342,-2.4352,-2.4348,-2.436,-2.4342,-2.4378,-2.4337,-2.4386,-2.4353,-2.4365,-2.4366,-2.4368,-2.4371,-2.4326,-2.4396,-2.4512,-2.4524,-2.4373,-2.4372,-2.4371,0,-2.4252,-2.4292,-2.4336,-2.4343,-2.435,-2.4371,-2.4375,-2.4383,-2.4397,-2.4413,-2.4422,-2.4442,-2.4454,-2.4469,-2.4457,-2.4429,-2.4508,-2.4466,-2.4505,-2.4506,-2.4524,-2.4523,-2.4644,-2.4532,-2.4531,-2.4531,-2.4531,0,-2.4346,-2.4387,-2.4371,-2.4399,-2.4444,-2.4427,-2.4471,-2.4472,-2.4478,-2.4505,-2.4479,-2.4505,-2.4487,-2.451,-2.4501,-2.4542,-2.4548,-2.4545,-2.4542,-2.4548,-2.4548,-2.4556,-2.455,-2.4534,-2.4534,-2.4533,-2.4532,0,-2.4442,-2.4433,-2.448,-2.4482,-2.4484,-2.4517,-2.4519,-2.4544,-2.4539,-2.4572,-2.4579,-2.4572,-2.4598,-2.4587,-2.4615,-2.4608,-2.4662,-2.4652,-2.4659,-2.4656,-2.4696,-2.4692,-2.4826,-2.4843,-2.472,-2.4721,-2.4722,0,-2.4503,-2.4534,-2.454,-2.4556,-2.4562,-2.4588,-2.4602,-2.4586,-2.4602,-2.4615,-2.4638,-2.4662,-2.468,-2.4724,-2.472,-2.4741,-2.4731,-2.4777,-2.4734,-2.4739,-2.4732,-2.473,-2.4733,-2.4786,-2.4787,-2.4788,-2.4789,0,-2.4612,-2.4606,-2.4627,-2.4648,-2.4665,-2.468,-2.4693,-2.4707,-2.4692,-2.4711,-2.4737,-2.4752,-2.478,-2.4804,-2.4823,-2.4826,-2.4805,-2.4802,-2.4812,-2.4818,-2.4821,-2.482,-2.4682,-2.48,-2.4798,-2.4798,-2.4797,-2.4797,-2.4692,-2.4718,-2.4726,-2.4751,-2.4759,-2.4771,-2.4795,-2.4793,-2.4815,-2.4837,-2.4826,-2.4856,-2.4864,-2.4887,-2.4893,-2.4917,-2.4899,-2.4914,-2.4917,-2.4921,-2.4927,-2.4817,-2.492,-2.492,-2.4919,-2.4919,-2.4919,0,-2.4799,-2.4803,-2.4826,-2.4845,-2.4864,-2.4843,-2.4855,-2.4873,-2.4901,-2.491,-2.4929,-2.4959,-2.4982,-2.498,-2.5001,-2.5021,-2.5012,-2.5027,-2.5025,-2.5026,-2.4941,-2.4931,-2.5034,-2.5034,-2.5034,-2.5034,-2.5034,-2.5034,-2.4858,-2.49,-2.4895,-2.4941,-2.4944,-2.4975,-2.4984,-2.4995,-2.5002,-2.5037,-2.5056,-2.5055,-2.506,-2.5081,-2.5101,-2.51,-2.5109,-2.5128,-2.5123,-2.5044,-2.5032,-2.5021,-2.5011,-2.513,-2.513,-2.5206,-2.5206,-2.5207]}]]